FW0304 Weather Reports


Display with metric or nautical units.
time (UTC)temp
F
wind
direction
speed
MPH
gust
MPH
rain 1hr
in
rain 24hr
in
rain mn
in
humidity
%
barometer
mb
20260831000026 85 119 0.0 0.0 0.00 0.00 0.00 73 1017.3
20260830234505 86 119 0.0 0.0 0.00 0.00 0.00 70 1017.4
20260830233010 88 119 0.0 2.0 0.00 0.00 0.00 65 1017.3
20260830231526 88 124 0.0 0.0 0.00 0.00 0.00 61 1017.3
20260830230027 89 124 0.0 2.0 0.00 0.00 0.00 58 1017.3
20260830224529 89 87 0.0 2.0 0.00 0.00 0.00 59 1017.3
20260830223008 87 111 0.0 1.0 0.00 0.00 0.00 66 1017.3
20260830221519 89 111 0.0 3.0 0.00 0.00 0.00 60 1017.4
20260830220024 90 125 0.0 4.0 0.00 0.00 0.00 57 1017.5
20260830214530 90 173 2.0 7.0 0.00 0.00 0.00 55 1017.4
20260830213004 91 166 0.0 3.0 0.00 0.00 0.00 54 1017.5
20260830211514 91 145 1.0 2.0 0.00 0.00 0.00 55 1017.5
20260830210020 91 272 0.0 4.0 0.00 0.00 0.00 57 1017.6
20260830204523 91 327 3.0 4.0 0.00 0.00 0.00 52 1017.7
20260830203031 91 101 0.0 4.0 0.00 0.00 0.00 55 1017.9
20260830201512 91 123 1.0 3.0 0.00 0.00 0.00 54 1018.0
20260830200015 90 164 0.0 3.0 0.00 0.00 0.00 56 1018.2
20260830194524 90 151 0.0 2.0 0.00 0.00 0.00 56 1018.5
20260830193028 90 161 1.0 4.0 0.00 0.00 0.00 54 1018.6
20260830191532 91 316 0.0 4.0 0.00 0.00 0.00 56 1018.7
20260830190015 90 153 1.0 5.0 0.00 0.00 0.00 57 1019.0
20260830184525 91 67 2.0 3.0 0.00 0.00 0.00 58 1019.2
20260830183028 89 179 0.0 3.0 0.00 0.00 0.00 61 1019.3
20260830181530 90 182 0.0 4.0 0.00 0.00 0.00 61 1019.5
20260830180012 90 271 2.0 6.0 0.00 0.00 0.00 59 1019.6
20260830174518 89 87 1.0 6.0 0.00 0.00 0.00 61 1019.7
20260830173026 89 293 0.0 5.0 0.00 0.00 0.00 63 1019.8
20260830171507 89 178 0.0 4.0 0.00 0.00 0.00 63 1020.1
20260830170013 89 122 0.0 4.0 0.00 0.00 0.00 63 1020.2
20260830164516 88 165 0.0 4.0 0.00 0.00 0.00 63 1020.3
20260830163025 87 106 1.0 4.0 0.00 0.00 0.00 65 1020.4
20260830161527 88 150 1.0 4.0 0.00 0.00 0.00 66 1020.5
20260830160011 88 100 1.0 4.0 0.00 0.00 0.00 64 1020.6
20260830154516 88 117 0.0 4.0 0.00 0.00 0.00 67 1020.6
20260830153039 87 9 0.0 3.0 0.00 0.00 0.00 69 1020.6
20260830151529 87 128 0.0 3.0 0.00 0.00 0.00 70 1020.7
20260830150031 86 312 0.0 4.0 0.00 0.00 0.00 72 1020.7
20260830144512 85 336 0.0 3.0 0.00 0.00 0.00 74 1020.7
20260830143017 85 315 0.0 2.0 0.00 0.00 0.00 77 1020.7
20260830141524 83 108 2.0 3.0 0.00 0.00 0.00 77 1020.7
20260830140033 83 317 0.0 3.0 0.00 0.00 0.00 80 1020.8
20260830134513 81 155 0.0 2.0 0.00 0.00 0.00 83 1020.6
20260830133017 79 159 1.0 3.0 0.00 0.00 0.00 84 1020.5
20260830131538 78 111 1.0 3.0 0.00 0.00 0.00 87 1020.4
20260830130028 77 124 0.0 0.0 0.00 0.00 0.00 90 1020.4
20260830124532 75 92 0.0 0.0 0.00 0.00 0.00 92 1020.4
20260830123015 74 92 0.0 0.0 0.00 0.00 0.00 93 1020.2
20260830121525 73 92 0.0 0.0 0.00 0.00 0.00 94 1020.2
20260830120029 73 92 0.0 0.0 0.00 0.00 0.00 94 1020.1
20260830114532 73 92 0.0 0.0 0.00 0.00 0.00 93 1020.0
20260830113032 73 92 0.0 0.0 0.00 0.00 0.00 94 1019.8
20260830111523 73 92 0.0 0.0 0.00 0.00 0.00 94 1019.5
20260830110026 73 92 0.0 0.0 0.00 0.00 0.00 93 1019.5
20260830104534 73 92 0.0 0.0 0.00 0.00 0.00 93 1019.3
20260830103032 73 92 0.0 0.0 0.00 0.00 0.00 93 1018.9
20260830101534 73 92 0.0 0.0 0.00 0.00 0.00 93 1019.0
20260830100024 73 92 0.0 0.0 0.00 0.00 0.00 93 1018.8
20260830094526 74 92 0.0 0.0 0.00 0.00 0.00 92 1018.7
20260830093033 74 92 0.0 0.0 0.00 0.00 0.00 92 1018.6
20260830091544 74 92 0.0 0.0 0.00 0.00 0.00 91 1018.5
20260830090017 75 92 0.0 0.0 0.00 0.00 0.00 90 1018.5
20260830084527 76 92 0.0 0.0 0.00 0.00 0.00 90 1018.4
20260830083005 77 92 0.0 0.0 0.00 0.00 0.00 88 1018.4
20260830081516 77 90 0.0 0.0 0.00 0.00 0.00 88 1018.4
20260830080012 77 81 0.0 0.0 0.00 0.00 0.00 87 1018.3
20260830074521 77 136 0.0 0.0 0.00 0.00 0.00 87 1018.2
20260830073005 77 127 0.0 0.0 0.00 0.00 0.00 86 1018.1
20260830071509 77 115 0.0 0.0 0.00 0.00 0.00 86 1018.4
20260830070014 78 99 0.0 0.0 0.00 0.00 0.00 85 1018.7
20260830064515 77 302 0.0 0.0 0.00 0.00 0.00 88 1018.7
20260830063015 76 302 0.0 0.0 0.00 0.00 0.00 89 1018.6
20260830061506 76 219 0.0 0.0 0.00 0.00 0.00 90 1018.7
20260830060010 75 219 0.0 1.0 0.00 0.00 0.00 91 1018.7
20260830054513 75 167 0.0 0.0 0.00 0.00 0.00 92 1018.7
20260830053017 76 167 0.0 0.0 0.00 0.00 0.00 91 1018.7
20260830051506 76 167 0.0 0.0 0.00 0.00 0.00 92 1018.6
20260830050010 76 167 0.0 0.0 0.00 0.00 0.00 92 1018.6
20260830044517 76 167 0.0 1.0 0.00 0.00 0.00 91 1018.6
20260830043019 76 167 0.0 0.0 0.00 0.00 0.00 91 1018.5
20260830041525 77 167 0.0 0.0 0.00 0.00 0.00 91 1018.6
20260830040020 77 167 0.0 0.0 0.00 0.00 0.00 90 1018.5
20260830034512 77 167 0.0 0.0 0.00 0.00 0.00 90 1018.5
20260830033024 77 167 0.0 0.0 0.00 0.00 0.00 91 1018.6
20260830031529 77 167 0.0 0.0 0.00 0.00 0.00 90 1018.6
20260830030022 77 167 0.0 0.0 0.00 0.00 0.00 90 1018.4
20260830024519 78 167 0.0 0.0 0.00 0.00 0.00 89 1018.2
20260830023019 78 166 0.0 0.0 0.00 0.00 0.00 88 1018.1
20260830021524 78 166 0.0 0.0 0.00 0.00 0.00 88 1018.1
20260830020030 79 166 0.0 0.0 0.00 0.00 0.00 87 1017.8
20260830014529 79 166 0.0 0.0 0.00 0.00 0.00 86 1017.7
20260830013013 80 166 0.0 0.0 0.00 0.00 0.00 85 1017.5
20260830011521 80 166 0.0 0.0 0.00 0.00 0.00 84 1017.3
20260830010027 81 166 0.0 0.0 0.00 0.00 0.00 83 1017.1
20260830004527 81 166 0.0 0.0 0.00 0.00 0.00 82 1017.0
20260830003012 82 166 0.0 0.0 0.00 0.00 0.00 81 1016.8
20260830001518 83 166 0.0 0.0 0.00 0.00 0.00 79 1016.8